Location: ??????
(55.0357°N, 38.6195°E)
Time: 13:26:06
(UTC+00:00)

Cosmos 1538 Rocket - Pass Details

Date: 14 April 2024
Orbit: 751 x 789 km, 74.0° (Epoch: 18 May)

Event Time Altitude Azimuth Distance (km) Brightness Sun altitude
Exits shadow 00:27:02 19° 197° (SSW) 1,787 5.4 -15.2°
Maximum altitude 00:30:53 77° 115° (ESE) 811 4.1 -14.8°
Drops below altitude 10° 00:36:13 10° 30° (NNE) 2,346 7.7 -14.2°
Sets 00:38:36 0° 29° (NNE) 3,273 8.7 -14.0°
